Other Surface Observations
Issued by NWS Tucson, AZ

Home | Current Version | Previous Version | Text Only | Print | Product List | Glossary On
Versions: 1 2 3 4 5 6 7 8 9 10 11 12 13 14 15 16 17 18 19 20 21 22 23 24 25 26 27 28 29 30 31 32 33 34 35 36 37 38 39 40 41 42 43 44 45 46 47 48 49 50
827
SXUS55 KTWC 200315
OSOTWC

WEATHER ROUNDUP FOR SOUTHEAST ARIZONA
NATIONAL WEATHER SERVICE TUCSON AZ
815 PM MST SUN NOV 19 2017

AZZ504>506-514-200415-
LOCATION       SKY/WX    TMP DP  RH WIND       PRES   REMARKS
TUCSON         CLEAR     67  25  20 E3        30.03R
DAVIS-MONTHAN  CLEAR     62  23  22 S5        30.01R
CHILDRENS PARK N/A      N/A N/A  22 NE1               PIMA CO DEQ
ALVERNON/22ND  N/A       68 N/A N/A NE2               PIMA CO DEQ
CHERRY/GLENN   N/A      N/A N/A N/A N/A               PIMA CO DEQ
TANGERINE      N/A       66 N/A N/A N4                PIMA CO DEQ
CONTL RANCH    N/A       69  22  17 NW4               PIMA CO DEQ
GRANT/1ST      N/A       69  25  19 SW0               PIMA CO DEQ
CRAYCROFT/22ND N/A       69  26  20 NE2               PIMA CO DEQ
GOLFLINKS/KOLB N/A       69  25  19 E3                PIMA CO DEQ
AJO/12TH       N/A       70  27  20 E3                PIMA CO DEQ
FAIRGROUNDS    N/A       65 N/A N/A SE10              PIMA CO DEQ
SAGUARO        N/A       65  25  22 N3                *SABINO CYN
SAN CARLOS     N/A       61  16  17 CALM              *SAN CARLOS
GREEN VALLEY   N/A       68  23  18 N5                PIMA CO DEQ
HORSE CAMP CYN N/A       57  16  20 E10G15            *ARAVAIPA CYN
RINCON MTNS    N/A       41  18  39 CALM              *NR MANNING CAMP
$$

AZZ509>511-200415-
LOCATION       SKY/WX    TMP DP  RH WIND       PRES   REMARKS
SAFFORD        CLEAR     50  11  20 E7        30.08R
STRAY HORSE    N/A       42   8  24 N4                *
TRAIL CABIN    N/A       39  10  30 S2                *N OF GRANVILLE
BLACK HILLS    NOT AVBL
DRY LAKE       N/A       42  10  26 S4G10             *NATANES MTNS
NOON CREEK     N/A       49  20  31 SW6               *PINALENO MTNS
COLUMBINE      N/A       26  -4  25 CALM              *PINALENO MTNS
GUTHRIE        N/A       47  13  25 S7G10             *SW OF GUTHRIE
$$

AZZ502-503-513-200415-
LOCATION       SKY/WX    TMP DP  RH WIND       PRES   REMARKS
NOGALES        CLEAR     62  25  24 NE12      30.05R
SELLS          N/A       67  22  18 E3                *
SASABE         N/A       62  26  25 N6                *ALTAR VLY
HOPKINS        N/A       51  23  33 NW3               *SANTA RITA MTNS
CARR CYN       N/A       49  26  40 S2                *W OF HEREFORD
$$

AZZ507-508-512-200415-
LOCATION       SKY/WX    TMP DP  RH WIND       PRES   REMARKS
SIERRA VISTA   CLEAR     55  20  25 CALM      30.13R
DOUGLAS        CLEAR     49  22  34 NE7       30.11R
EMPIRE MTNS    NOT AVBL
MULESHOE RANCH N/A       58  19  22 NE6G12            *PRESERVE
HEADQUARTERS   N/A       53  21  28 NE7G15            *CHIRICAHUA MTNS
$$

.............................NOTES.............................
THIS IS AN AUTOMATED COLLECTIVE WITH MINIMAL QUALITY CONTROL.
PIMA CO DEQ SITES HAVE NONSTANDARD WIND SENSOR HEIGHTS.
PIMA CO DEQ SITES DO NOT REPORT WIND GUSTS.
* INDICATES WIND SENSORS LOCATED AT 20 FEET INSTEAD OF 33 FEET.
..............................KEY..............................
SKY/WX - SKY CONDITION/WEATHER
TMP    - TEMPERATURE IN FAHRENHEIT
DP     - DEWPOINT IN FAHRENHEIT
RH     - RELATIVE HUMIDITY IN PERCENT
WIND   - DIRECTION AND SPEED IN MILES PER HOUR (MPH)
VRB    - VARIABLE WIND DIRECTION
PRES   - MEAN SEA LEVEL PRESSURE IN INCHES OF MERCURY
         F - FALLING PRESSURE   R - RISING PRESSURE
         S - STEADY PRESSURE
VSB    - VISIBILITY IN MILES
HX     - HEAT INDEX IN FAHRENHEIT
WCI    - WIND CHILL INDEX IN FAHRENHEIT
N/A    - NOT AVAILABLE
AFB    - AIR FORCE BASE
         DAVIS-MONTHAN IS DAVIS-MONTHAN AIR FORCE BASE
CYN    - CANYON
MTNS   - MOUNTAINS
NCA    - NATIONAL CONSERVATION AREA
NR     - NEAR
VLY    - VALLEY
CONTL  - CONTINENTAL
PIMA CO DEQ - PIMA COUNTY DEPT OF ENVIRONMENTAL QUALITY



USA.gov is the U.S. government's official web portal to all federal, state and local government web resources and services.